STARLINK-37261, 68567

Orbit data source: Space-Track

STARLINK-37261, 68567 is a payload satellite owned by SpaceX/Seattle (US) in LEO that was launched on Thu, 02 Apr 2026 UTC via an FALCON 9 launch vehicle from the Air Force Eastern Test Range (AFETR). Payload-class satellites include a variety of spacecraft equipped with specific instruments for various scientific and technological missions. These include communications satellites like Starlink; space stations such as the ISS; scientific satellites like the Hubble; Earth observation satellites from companies like Planet Labs, Umbra, and HawkEye 360; GPS; miniature CubeSats for education and research; and military/defense satellites.

Loading next visibility...
Identifier
68567, 2026-070AB
Orbit
LEO
Country
Flag of USUS
Related business
Manufacturer
SpaceX/Seattle
Mission
Operational Commercial Communications
Bus & Motor
STARLINK V2MO, Unknown motor
Mass
575 kg wet, ~530 kg dry
Launch date (UTC)
2026-04-02 (5 months ago)
Launch vehicle
FALCON 9
Launch site
Air Force Eastern Test Range (AFETR)
Object type
Payload
Rocket body
Debris
Shape & HBR
Box + 1 Pan, 17.7 m
Radar Cross Section
41.120 m², Large (>1 m²)

Expand to show TLE details & history
Last TLE update: 10 hours ago

TLE from 10 hours ago
0 STARLINK-37261
1 68567U 26070AB  26247.03059422  .00011887  00000-0  36239-3 0  9994
2 68567  53.1575 250.3406 0001270  86.8426 273.2722 15.34398999 23914
Epoch: 2026-09-04T00:44Z
TLE epoch observation values (Epoch: 2026-09-04T00:44:03.340Z)
Latitude
-0.00002°
Longitude
-103.8336°
Altitude
463.558 km
Speed
7.636 km/s
True Right ascension
16h 41m 21s
True Declination
0° 00' 00"
Sunlit
Object was in daylight at epoch
Visualization orbit readout
Latitude
Unknown
Longitude
Unknown
Altitude
Unknown
Speed
Unknown
Apparent Right ascension
Unknown
Apparent Declination
Unknown
Sunlit
N/A
Visualization observer readout
Local Sidereal Time
02:17:05
Azimuth
Unknown
Elevation
Unknown
Doppler factor
Unknown
Orbital elements
Apogee altitude
463.832 km
Perigee altitude
462.095 km
Semi-major axis
6,841.101 km
Eccentricity
0.00013
Inclination
53.1575°
RAAN
250.3406°
Arg. of periapsis
86.8426°
True anomaly
273.25767°
Mean anomaly
273.2722°
Eccentric anomaly
273.26494°
Mean motion
3.83578 °/min
Orbital period
93.85 mins
BSTAR
0.00036239
Loading maneuver chart data...
Computing Atmospheric mass density...
Loading historical data...
Loading historical data...
Loading historical data...
Loading historical data...
Loading historical data...
Loading historical data...
Loading historical data...

Documentation

Showing up to 5 results
|